Dewpoint
63 63 63 62 61 59 58 55 54 53 52 52 51 51 52 52 52 48 48 51 50 51 49 51 49 48 45 40 33 41 48 46 46 46 46 45 43 44 40 40 43 42 45 47 47 50 48
64 63 63 63 62 60 59 57 54 53 52 52 52 51 52 51 51 48 49 49 50 51 49 51 49 48 44 35 31 37 37 46 46 46 45 46 44 45 40 39 40 44 44 45 47 47 49
63 64 63 63 62 61 59 58 55 53 53 52 52 51 51 51 50 48 47 49 50 50 51 50 48 45 42 38 36 38 38 39 49 47 44 45 47 46 44 38 39 43 40 42 44 46 46
61 63 63 63 63 62 59 57 55 53 53 52 52 51 51 51 49 48 48 50 49 50 52 50 48 45 39 39 39 38 38 41 48 48 48 51 50 47 45 43 40 40 40 38 41 47 48
59 60 63 63 63 62 60 57 55 54 53 52 51 51 51 50 49 47 48 50 49 51 50 49 45 43 36 41 38 39 40 37 43 48 49 48 49 44 43 40 36 38 35 38 40 45 46
55 58 60 62 63 62 61 58 56 54 52 52 51 51 51 50 47 49 50 49 49 49 47 44 42 38 39 36 40 40 41 38 41 44 43 42 43 38 39 38 30 33 33 35 36 42 43
54 55 58 59 62 62 61 59 56 54 52 52 51 50 50 48 48 49 47 45 41 39 40 36 36 33 38 41 42 40 40 39 41 39 36 39 35 31 34 37 37 34 32 31 34 42 40
51 54 56 58 59 61 61 59 57 54 52 52 51 50 49 48 48 49 46 43 39 39 36 39 40 39 41 42 35 38 40 36 35 34 37 34 33 38 37 37 38 36 30 29 34 41 38
49 51 54 56 58 61 61 59 57 54 52 51 50 49 48 48 48 45 44 42 42 41 35 38 40 38 41 42 37 37 40 35 34 32 34 32 36 38 38 37 36 36 30 30 32 39 41
48 50 52 54 55 57 61 59 57 54 52 51 50 49 48 48 44 45 42 42 42 41 29 35 37 38 42 41 35 39 43 39 35 31 33 33 35 36 37 35 35 34 34 33 35 36 32
47 48 51 53 55 56 60 59 57 54 53 51 50 49 47 48 46 42 42 42 41 40 21 35 36 42 42 38 35 38 44 40 31 33 33 28 37 36 35 33 36 35 37 32 35 35 31
46 48 51 52 53 56 57 58 56 54 53 51 49 48 48 46 46 44 42 41 41 28 12 33 38 38 35 38 38 39 40 40 39 35 36 37 39 39 38 37 38 39 36 37 37 34 27
47 47 49 52 52 55 56 58 56 54 52 50 49 49 47 47 44 43 44 41 31 20 33 31 33 35 35 35 37 36 35 34 33 28 31 37 37 40 42 37 38 38 32 29 27 27 23
46 47 48 51 52 53 55 57 55 53 51 50 49 50 48 45 46 45 43 37 22 28 29 33 35 35 30 32 36 36 35 31 36 36 33 29 28 37 40 38 34 36 33 24 19 21 20
45 47 49 51 51 52 56 57 54 53 51 49 51 47 45 46 46 45 41 26 25 29 32 34 34 31 30 34 34 37 36 31 35 36 30 30 32 39 40 38 36 34 32 27 25 21 22
46 46 49 49 51 52 55 55 53 52 50 50 46 45 45 47 46 44 36 28 31 36 35 34 33 33 29 32 33 35 36 35 35 35 35 31 29 35 37 38 36 34 32 24 24 17 16
46 46 49 50 52 54 57 55 52 52 50 52 43 41 46 48 46 41 30 29 35 34 36 34 34 32 28 29 32 32 33 34 35 34 32 32 29 32 36 33 31 32 33 30 27 25 21
46 47 49 52 53 54 56 54 52 51 50 49 42 37 47 47 37 37 32 35 37 34 36 35 34 33 29 28 30 30 32 32 35 32 31 37 32 30 31 36 37 36 33 31 24 23 23
46 47 50 52 53 54 55 53 52 51 50 45 39 40 43 46 32 32 34 35 35 35 34 34 32 33 33 31 30 32 33 37 35 33 32 32 28 27 29 30 33 34 34 34 31 28 21
46 46 48 51 53 54 53 52 52 51 51 45 38 34 39 42 39 36 34 33 33 36 33 32 31 31 30 32 31 31 33 36 38 36 39 36 31 25 21 24 30 29 31 33 31 22 25
45 47 48 51 53 54 53 52 52 50 51 43 38 34 35 33 33 34 35 33 33 31 33 31 30 31 30 28 30 31 33 35 37 37 34 34 27 22 28 31 32 31 29 30 28 30 26
47 47 48 51 54 53 52 51 51 50 50 41 34 34 35 33 34 33 34 32 31 33 31 30 30 31 30 32 31 30 32 33 33 34 32 34 27 27 26 28 29 28 30 30 31 30 30
46 45 48 50 52 53 52 51 50 50 46 37 35 33 31 32 32 32 31 31 32 34 35 36 34 31 34 35 36 35 32 31 32 33 32 32 28 24 21 26 25 22 26 29 30 30 30
46 47 50 50 54 53 51 51 50 50 43 37 35 33 29 26 30 31 32 33 34 33 33 37 35 35 36 37 37 36 33 31 31 31 33 34 33 31 24 25 17 23 26 27 29 30 31
44 47 49 54 53 52 51 51 50 49 47 37 36 35 29 24 27 29 32 32 33 34 35 36 34 34 38 36 30 28 28 29 29 30 30 37 33 31 25 21 24 23 24 25 22 24 27
43 48 50 54 53 51 51 50 50 49 48 37 37 37 33 27 23 25 29 30 30 29 32 33 33 38 39 36 31 24 23 25 26 28 31 32 34 29 29 19 19 23 27 28 26 25 31
44 48 50 53 52 50 50 49 49 48 45 38 36 38 31 26 27 27 25 26 27 28 30 31 34 35 36 31 27 25 23 26 25 25 26 27 28 26 24 26 25 27 27 29 19 21 32
46 48 50 52 51 50 49 48 48 49 44 38 36 38 33 29 29 30 30 27 25 27 27 29 32 34 33 28 29 27 26 26 23 26 27 25 23 24 26 24 20 28 26 24 29 31 33
47 49 53 51 50 50 48 48 48 49 43 40 34 35 35 31 29 31 31 32 32 31 30 32 30 32 32 28 28 29 27 26 23 20 27 23 26 26 25 25 28 28 29 32 33 33 34
Lifted_Index
0 0 1 2 2 2 3 5 7 9 11 12 12 13 13 13 13 14 15 15 13 11 9 7 6 5 5 4 3 3 2 2 2 1 0 0 0 -0 0 0 -0 -0 -0 -0 -1 -1 -0
-0 -0 0 1 2 2 3 4 6 8 10 11 12 13 13 13 14 15 15 15 13 11 9 7 6 5 4 4 3 3 3 2 2 1 0 0 -0 -0 -0 0 0 -0 -0 -0 -0 -0 0
-0 -0 -0 0 1 2 2 3 4 7 9 11 12 12 13 13 14 15 15 15 13 11 9 7 6 5 4 3 3 2 3 2 1 0 0 -0 -0 -0 -0 0 0 0 0 0 0 1 1
0 -0 -1 -1 0 1 2 2 3 6 8 10 11 12 13 13 14 15 15 15 13 11 8 6 6 5 4 3 2 2 2 1 0 -0 -0 -0 -0 -0 -0 0 0 0 0 1 1 1 1
1 1 -0 -1 -1 0 1 2 3 5 8 10 11 12 13 14 15 15 15 14 13 11 8 6 6 5 4 2 2 1 1 1 0 -0 -0 -0 -0 -0 0 0 0 1 1 1 1 1 1
2 2 1 -0 -0 -0 1 2 2 4 7 10 11 12 13 14 15 15 15 14 12 10 8 6 5 5 4 3 1 1 1 1 1 1 1 0 0 1 1 0 0 1 1 1 1 1 1
4 3 2 1 0 0 1 1 2 4 7 9 11 12 13 14 15 15 15 14 12 10 8 6 5 4 4 3 1 1 1 1 1 1 1 1 1 1 1 0 0 1 1 1 1 1 1
7 5 3 2 1 0 0 1 2 3 6 9 11 12 14 15 15 15 15 14 12 10 7 5 4 4 4 3 1 1 1 1 1 2 1 1 1 1 1 1 1 1 1 1 1 1 1
10 9 6 4 2 1 1 1 2 3 6 9 11 12 14 15 15 15 15 15 13 10 7 5 4 4 3 3 2 1 0 1 1 2 2 1 1 1 1 1 1 1 1 1 1 1 1
11 10 9 6 3 2 1 1 2 3 6 9 11 13 14 14 14 14 15 15 13 10 6 4 4 3 3 3 2 1 0 0 1 2 1 1 1 1 1 1 1 1 1 1 0 0 0
12 11 10 8 6 3 2 1 2 3 6 9 12 13 14 14 14 14 15 15 13 9 5 4 3 3 3 2 2 1 0 0 1 1 1 1 1 1 1 1 1 0 0 0 0 0 0
13 12 10 9 7 5 3 2 1 3 6 10 12 13 14 14 14 14 15 14 12 8 5 4 3 3 2 2 2 1 1 1 1 1 1 0 0 1 1 1 1 0 0 0 0 0 1
13 12 11 10 8 6 4 2 2 3 7 10 12 13 14 14 14 15 15 14 10 7 6 4 4 3 2 2 1 1 1 1 1 1 1 1 0 0 0 0 0 0 0 0 0 0 1
10 11 11 10 9 7 5 2 2 4 7 11 13 13 13 14 14 15 14 12 10 8 6 4 4 4 3 2 1 1 1 1 1 1 1 1 1 0 0 0 0 0 0 1 0 1 1
7 8 9 9 9 7 5 3 2 4 8 11 12 13 13 14 14 15 14 12 10 9 6 4 3 3 3 2 1 1 1 1 1 1 1 1 1 0 0 0 0 0 1 1 1 1 1
4 6 8 9 8 7 5 3 2 5 9 12 12 12 13 14 14 14 13 12 11 9 7 4 3 3 3 2 2 1 1 1 1 1 0 0 1 0 0 0 0 0 1 1 1 1 1
3 5 7 8 7 6 4 3 3 5 10 12 12 12 13 14 14 14 13 12 11 10 8 5 3 3 3 2 2 1 1 0 1 1 0 1 1 1 1 1 1 1 1 1 1 1 0
3 5 6 6 6 6 4 3 3 6 10 12 12 12 13 13 13 13 13 12 12 11 9 7 4 3 3 2 2 1 1 1 1 1 1 1 1 1 1 1 1 1 1 1 1 1 1
4 5 6 6 6 6 4 3 4 7 10 12 12 12 13 13 12 12 12 12 12 11 10 8 6 4 3 2 2 1 1 1 1 1 1 1 2 1 1 1 1 1 1 1 1 1 1
4 6 7 7 6 5 4 3 4 8 11 12 12 12 13 13 12 12 12 12 12 12 11 10 8 5 3 2 2 2 2 2 2 2 2 2 2 1 1 1 1 1 1 1 1 1 1
5 6 7 7 6 5 4 4 5 9 11 12 12 12 12 12 12 12 12 12 12 12 12 11 10 7 5 3 2 2 2 2 2 2 2 2 1 1 1 1 1 1 1 1 1 1 1
6 7 8 8 6 5 5 5 7 10 12 12 12 12 12 12 12 12 11 11 11 12 12 12 11 9 6 4 3 2 2 2 2 2 2 2 1 1 1 2 2 2 2 2 1 1 1
8 8 9 8 7 6 5 6 9 11 13 13 13 13 12 12 12 12 12 11 11 11 12 12 11 10 8 6 4 3 2 2 2 1 1 1 1 1 1 2 2 2 2 2 2 2 2
9 9 8 7 6 6 6 7 9 12 13 14 14 14 13 12 12 12 12 11 11 11 11 11 11 11 10 8 6 4 3 2 2 1 1 1 1 1 2 2 2 2 2 2 2 2 2
9 9 7 6 5 5 6 7 10 12 14 14 15 14 13 12 12 12 12 12 11 11 11 11 11 11 11 10 8 6 4 3 2 2 1 1 1 1 2 2 2 2 2 2 3 3 3
9 9 7 6 5 5 6 8 11 13 14 15 15 14 14 13 13 13 12 12 12 12 12 12 12 12 11 10 9 8 6 4 3 2 2 1 1 1 2 2 2 2 2 3 3 3 3
9 9 8 7 6 6 7 9 11 13 15 16 15 15 14 13 13 13 13 13 13 12 12 12 12 12 11 11 10 9 7 5 4 3 2 2 2 2 2 2 2 2 2 3 3 3 3
9 8 8 7 7 7 9 11 12 13 15 16 16 15 15 14 14 15 14 14 13 13 13 12 12 12 12 11 11 10 9 7 6 4 3 2 2 2 2 2 2 2 2 2 3 3 3
8 7 7 7 7 8 10 11 12 13 15 16 16 15 15 15 15 15 15 15 14 14 13 13 12 12 12 12 11 10 9 9 7 6 4 3 2 2 2 2 2 2 2 2 2 3 3